GW3498 Weather Reports


Display with metric or nautical units.
time (UTC)temp
F
wind
direction
speed
MPH
gust
MPH
rain 1hr
in
rain 24hr
in
rain mn
in
humidity
%
barometer
mb
20260903170534 83 353 2.0 3.0 0.00 0.00 0.00 51 1016.8
20260903165520 84 11 1.0 4.0 0.00 0.00 0.00 49 1016.9
20260903164536 85 358 3.0 6.0 0.00 0.00 0.00 47 1016.7
20260903163545 86 359 3.0 9.0 0.00 0.00 0.00 46 1016.7
20260903162518 87 230 1.0 3.0 0.00 0.00 0.00 44 1016.8
20260903161614 88 25 1.0 7.0 0.00 0.00 0.00 42 1016.8
20260903160528 89 244 2.0 6.0 0.00 0.00 0.00 40 1016.6
20260903155522 89 326 1.0 3.0 0.00 0.00 0.00 40 1016.5
20260903154516 89 285 2.0 7.0 0.00 0.00 0.00 40 1016.5
20260903153551 89 257 2.0 6.0 0.00 0.00 0.00 39 1016.4
20260903152525 91 222 3.0 6.0 0.00 0.00 0.00 37 1016.3
20260903151520 92 233 2.0 6.0 0.00 0.00 0.00 34 1016.2
20260903150535 92 206 1.0 3.0 0.00 0.00 0.00 33 1016.3
20260903145530 92 231 2.0 6.0 0.00 0.00 0.00 33 1016.3
20260903144526 93 203 2.0 7.0 0.00 0.00 0.00 31 1016.2
20260903143519 93 175 1.0 3.0 0.00 0.00 0.00 31 1016.4
20260903142555 92 241 2.0 7.0 0.00 0.00 0.00 31 1016.4
20260903141528 93 227 2.0 6.0 0.00 0.00 0.00 31 1016.3
20260903140544 93 253 1.0 6.0 0.00 0.00 0.00 31 1016.4
20260903135538 92 212 2.0 4.0 0.00 0.00 0.00 32 1016.5
20260903134532 92 264 2.0 3.0 0.00 0.00 0.00 33 1016.6
20260903133526 92 236 2.0 4.0 0.00 0.00 0.00 32 1016.5
20260903132520 92 246 1.0 3.0 0.00 0.00 0.00 32 1016.8
20260903131535 92 253 2.0 7.0 0.00 0.00 0.00 32 1016.9
20260903130529 91 195 2.0 6.0 0.00 0.00 0.00 34 1016.8
20260903125543 91 197 1.0 3.0 0.00 0.00 0.00 34 1016.8
20260903124519 92 221 1.0 3.0 0.00 0.00 0.00 33 1017.2
20260903123534 91 229 2.0 8.0 0.00 0.00 0.00 33 1017.2
20260903122529 90 191 2.0 6.0 0.00 0.00 0.00 35 1017.3
20260903121524 90 204 2.0 4.0 0.00 0.00 0.00 35 1017.3
20260903120519 89 203 2.0 4.0 0.00 0.00 0.00 36 1017.3
20260903115534 89 227 1.0 3.0 0.00 0.00 0.00 37 1017.3
20260903114529 89 213 2.0 6.0 0.00 0.00 0.00 37 1017.3
20260903113524 89 197 2.0 7.0 0.00 0.00 0.00 37 1017.4
20260903112518 89 206 1.0 3.0 0.00 0.00 0.00 38 1017.5
20260903111553 89 337 1.0 4.0 0.00 0.00 0.00 38 1017.5
20260903110527 89 224 2.0 7.0 0.00 0.00 0.00 37 1017.7
20260903105522 87 178 1.0 3.0 0.00 0.00 0.00 39 1017.7
20260903104516 88 247 1.0 4.0 0.00 0.00 0.00 38 1017.8
20260903103551 87 345 1.0 3.0 0.00 0.00 0.00 40 1017.7
20260903102525 87 176 2.0 4.0 0.00 0.00 0.00 42 1018.0
20260903101542 87 207 1.0 4.0 0.00 0.00 0.00 41 1017.9
20260903100534 86 262 2.0 4.0 0.00 0.00 0.00 45 1018.0
20260903095552 87 214 1.0 6.0 0.00 0.00 0.00 45 1018.1
20260903094524 86 233 1.0 4.0 0.00 0.00 0.00 45 1018.2
20260903093518 86 217 1.0 3.0 0.00 0.00 0.00 43 1018.3
20260903092553 85 197 1.0 3.0 0.00 0.00 0.00 46 1018.3
20260903091553 84 190 1.0 3.0 0.00 0.00 0.00 47 1018.3
20260903090521 85 167 0.0 2.0 0.00 0.00 0.00 48 1018.3
20260903085518 84 174 0.0 2.0 0.00 0.00 0.00 47 1018.3
20260903084551 83 203 1.0 3.0 0.00 0.00 0.00 51 1018.1
20260903083545 82 158 1.0 2.0 0.00 0.00 0.00 53 1018.2
20260903082521 83 145 1.0 2.0 0.00 0.00 0.00 53 1018.1
20260903081535 82 177 0.0 2.0 0.00 0.00 0.00 53 1018.0
20260903080530 81 187 1.0 2.0 0.00 0.00 0.00 55 1017.9
20260903075523 80 196 0.0 2.0 0.00 0.00 0.00 56 1017.8
20260903074518 80 147 1.0 2.0 0.00 0.00 0.00 56 1017.8
20260903073533 79 144 0.0 1.0 0.00 0.00 0.00 56 1017.8
20260903072528 75 168 0.0 1.0 0.00 0.00 0.00 62 1017.7
20260903071521 74 160 0.0 2.0 0.00 0.00 0.00 65 1017.7
20260903070516 73 144 0.0 1.0 0.00 0.00 0.00 66 1017.7
20260903065611 73 151 0.0 1.0 0.00 0.00 0.00 67 1017.7
20260903064526 72 0.0 0.0 0.00 0.00 0.00 67 1017.6
20260903063520 72 155 0.0 1.0 0.00 0.00 0.00 66 1017.6
20260903062535 72 198 0.0 1.0 0.00 0.00 0.00 68 1017.5
20260903061529 71 187 0.0 1.0 0.00 0.00 0.00 69 1017.4
20260903060524 70 0.0 0.0 0.00 0.00 0.00 70 1017.4
20260903055519 70 0.0 0.0 0.00 0.00 0.00 70 1017.3
20260903054533 71 0.0 0.0 0.00 0.00 0.00 69 1017.3
20260903053531 71 0.0 0.0 0.00 0.00 0.00 67 1017.3
20260903052542 71 41 0.0 1.0 0.00 0.00 0.00 66 1017.2
20260903051518 71 47 0.0 1.0 0.00 0.00 0.00 66 1017.2
20260903050533 70 62 0.0 1.0 0.00 0.00 0.00 66 1017.1
20260903045609 70 38 0.0 1.0 0.00 0.00 0.00 66 1017.1
20260903044520 69 0.0 0.0 0.00 0.00 0.00 68 1017.0
20260903043535 70 0.0 0.0 0.00 0.00 0.00 67 1017.1
20260903042529 70 0.0 0.0 0.00 0.00 0.00 66 1017.0
20260903041523 70 0.0 0.0 0.00 0.00 0.00 66 1016.9
20260903040518 70 0.0 0.0 0.00 0.00 0.00 67 1017.0
20260903035534 70 27 0.0 1.0 0.00 0.00 0.00 65 1016.9
20260903034528 70 0.0 0.0 0.00 0.00 0.00 67 1017.1
20260903033522 70 0.0 0.0 0.00 0.00 0.00 68 1017.2
20260903032516 70 43 0.0 1.0 0.00 0.00 0.00 67 1017.2
20260903031552 71 0.0 0.0 0.00 0.00 0.00 67 1017.2
20260903030527 71 0.0 0.0 0.00 0.00 0.00 66 1017.3
20260903025540 70 0.0 0.0 0.00 0.00 0.00 66 1017.3
20260903024554 71 0.0 0.0 0.00 0.00 0.00 65 1017.2
20260903023529 71 0.0 0.0 0.00 0.00 0.00 66 1017.3
20260903022525 71 0.0 0.0 0.00 0.00 0.00 66 1017.4
20260903021538 71 0.0 0.0 0.00 0.00 0.00 66 1017.5
20260903020532 72 0.0 0.0 0.00 0.00 0.00 65 1017.5
20260903015527 71 40 0.0 1.0 0.00 0.00 0.00 65 1017.6
20260903014542 71 41 0.0 1.0 0.00 0.00 0.00 65 1017.6
20260903013537 72 0.0 0.0 0.00 0.00 0.00 64 1017.5
20260903012530 72 0.0 0.0 0.00 0.00 0.00 64 1017.6
20260903011524 72 0.0 0.0 0.00 0.00 0.00 63 1017.7
20260903010518 73 0.0 0.0 0.00 0.00 0.00 62 1017.7
20260903005533 75 135 0.0 1.0 0.00 0.00 0.00 59 1017.7
20260903004528 76 354 1.0 3.0 0.00 0.00 0.00 56 1017.7
20260903003522 75 355 1.0 3.0 0.00 0.00 0.00 57 1017.7
20260903002539 75 347 2.0 3.0 0.00 0.00 0.00 57 1017.8
20260903001531 73 45 0.0 1.0 0.00 0.00 0.00 62 1017.8
20260903000526 73 84 0.0 1.0 0.00 0.00 0.00 61 1017.9
20260902235522 73 0.0 0.0 0.00 0.00 0.00 61 1017.9
20260902234535 73 0.0 0.0 0.00 0.00 0.00 60 1017.8
20260902233529 74 56 0.0 1.0 0.00 0.00 0.00 59 1017.9
20260902232525 73 65 0.0 1.0 0.00 0.00 0.00 60 1017.9
20260902231540 74 0.0 0.0 0.00 0.00 0.00 60 1017.9
20260902230532 74 0.0 0.0 0.00 0.00 0.00 60 1018.0
20260902225527 74 0.0 0.0 0.00 0.00 0.00 60 1018.1
20260902224541 74 0.0 0.0 0.00 0.00 0.00 60 1018.0
20260902223535 74 29 0.0 1.0 0.00 0.00 0.00 60 1018.1
20260902222531 74 0.0 0.0 0.00 0.00 0.00 60 1018.1
20260902221525 74 0.0 0.0 0.00 0.00 0.00 60 1018.2
20260902220519 74 0.0 0.0 0.00 0.00 0.00 61 1018.2
20260902215533 74 0.0 0.0 0.00 0.00 0.00 60 1018.2
20260902214528 74 0.0 0.0 0.00 0.00 0.00 60 1018.1
20260902213644 74 39 0.0 1.0 0.00 0.00 0.00 59 1018.3
20260902212542 75 0.0 0.0 0.00 0.00 0.00 59 1018.1
20260902211535 76 20 0.0 1.0 0.00 0.00 0.00 56 1018.1
20260902210530 77 346 1.0 2.0 0.00 0.00 0.00 57 1018.2